Regional Weather Roundup
Issued by NWS

Home | Current Version | Previous Version | Graphics & Text | Print | Product List | Glossary On
Versions: 1 2 3 4 5 6 7 8 9 10 11 12 13 14 15 16 17 18 19 20 21 22 23 24 25 26 27 28 29 30 31 32 33 34 35 36 37 38 39 40 41 42 43 44 45 46 47 48 49 50
748
ASUS45 KBOU 191707
RWRCO

WEATHER ROUNDUP FOR COLORADO
NATIONAL WEATHER SERVICE DENVER/BOULDER CO
1100 AM MDT THU OCT 19 2017

NOTE: "FAIR" INDICATES FEW OR NO CLOUDS BELOW 12000 FEET WITH NO
SIGNIFICANT WEATHER AND/OR OBSTRUCTIONS TO VISIBILITY.

COZ001>005-013-030-031-191800-
...NORTHWEST COLORADO...

CITY           SKY/WX    TMP DP  RH WIND       PRES   REMARKS
CRAIG          FAIR      53  22  29 CALM      30.13F
HAYDEN         FAIR      53  18  25 SE10      30.16F
MEEKER         FAIR      57  17  21 CALM      30.13F
RABBIT EARS PA FAIR      50  12  22 SW7       30.35S
STEAMBOAT SPGS FAIR      50  19  29 CALM      30.16F
WALDEN         NOT AVBL
$$

COZ006>008-011-191800-
...WEST CENTRAL VALLEYS...

CITY           SKY/WX    TMP DP  RH WIND       PRES   REMARKS
GRAND JUNCTION CLOUDY    60  18  19 SE9       30.09F
MONTROSE       FAIR      60  19  20 W3        30.15F
EAGLE          FAIR      44  16  32 CALM      30.24F
RIFLE          FAIR      55  16  21 CALM      30.14F
DELTA          FAIR      60  16  18 SE6       30.13F
NUCLA          FAIR      55  18  22 W3        30.18F
$$

COZ017>023-064>068-191800-
...SOUTHWEST COLORADO...

CITY           SKY/WX    TMP DP  RH WIND       PRES   REMARKS
DURANGO        FAIR      59  25  27 VRB3      30.20S
CORTEZ         FAIR      62  27  26 E3        30.15F
PAGOSA SPRINGS FAIR      61  14  16 CALM      30.26F
TELLURIDE      FAIR      57  21  24 CALM      30.31F
WOLF CREEK PAS FAIR      43  14  31 SW8       30.51F
$$

COZ009-010-012-014-032>034-037-058>063-191800-
...CENTRAL COLORADO...

CITY           SKY/WX    TMP DP  RH WIND       PRES   REMARKS
ASPEN          FAIR      55  17  22 N7        30.21F
BUENA VISTA    FAIR      52  13  21 CALM      30.25F
COPPER MTN     FAIR      54  14  20 S10       30.45S
BERTHOUD PASS  FAIR      41  32  70 W12G23    30.47F
COTTONWOOD PAS FAIR      59  12  15 E5        30.33F
GUNNISON       FAIR      43  12  28 CALM      30.29F
KREMMLING      FAIR      45  16  31 CALM      30.27F
LEADVILLE      FAIR      50   6  16 W6        30.32F
SALIDA         NOT AVBL
SUNLIGHT       FAIR      50  16  25 SW9       30.40F
WILKERSON PASS FAIR      46   3  17 SW8       30.44F
$$

COZ069>075-191800-
...SAN LUIS VALLEY/SANGRE DE CRISTO MOUNTAINS...

CITY           SKY/WX    TMP DP  RH WIND       PRES   REMARKS
ALAMOSA        FAIR      52  18  26 CALM      30.26F
DEL NORTE      FAIR      54  17  22 CALM      30.28F
LA VETA PASS   FAIR      54  19  26 SW15G25   30.47F
SAGUACHE       FAIR      54  16  22 CALM      30.28F
$$

COZ035-036-038>040-191800-
...NORTHERN COLORADO FRONT RANGE...

CITY           SKY/WX    TMP DP  RH WIND       PRES   REMARKS
DENVER INTL AP PTSUNNY   66  21  18 W9        30.06F
DMNS CITY PARK   N/A     66  23  19 E9        30.06F
AURORA         PTSUNNY   67  25  20 W5        30.07F
FRONT RANGE AP PTSUNNY   68  21  17 SW5       30.08F
ERIE MUNI ARPT FAIR      64  21  19 CALM      30.11F
BOULDER MUN AP FAIR      63  30  29 CALM      30.06F
CENTENNIAL     PTSUNNY   69  24  18 N3        30.08F
BROOMFIELD     PTSUNNY   63  25  23 W5        30.09
FORT COLLINS   FAIR      59  33  37 SE3       30.06F
LONGMONT       FAIR      65  31  28 SE3       30.07F
$$

COZ041-046-047-076>085-087-088-191800-
...PIKES PEAK/PALMER DIVIDE AND SOUTHERN FOOTHILLS...

CITY           SKY/WX    TMP DP  RH WIND       PRES   REMARKS
COLO. SPRINGS  FAIR      63  26  24 SE8       30.14F
A. F. ACADEMY  SUNNY     68  23  18 SE6       30.13F
SCHRIEVER AFB  FAIR      65  23  20 MISG      30.14F
CHEYENNE MTN   NOT AVBL
ELLICOTT       FAIR     N/A N/A N/A S6        30.12F
FALCON         FAIR      67  20  16 S7        30.18F
FORT CARSON    FAIR      62  24  23 SE3       30.12F
LIMON          FAIR      69  33  26 SE13      30.10F
MONUMENT HILL  FAIR      68  16  13 SW14      30.17F
CANON CITY     FAIR      68  23  18 W12       30.09F
WALSENBURG     NOT AVBL
TRINIDAD       FAIR      70  24  17 E3        30.12F
$$

COZ042>045-048>051-090-091-191800-
...NORTHEAST COLORADO...

CITY           SKY/WX    TMP DP  RH WIND       PRES   REMARKS
GREELEY ARPT   FAIR      56  32  40 CALM      30.06F
AKRON          FAIR      71  34  25 S7        30.05F
BURLINGTON     FAIR      76  46  34 S17       30.07F
WRAY           FAIR      77  41  27 S13       30.03F
YUMA           NOT AVBL
STERLING       FAIR      61  36  39 S6        30.02F
HOLYOKE        FAIR      73  41  31 S9        30.04F
FORT MORGAN    FAIR      59  28  31 SW5       30.06F
$$

COZ086-089-092>099-191800-
...SOUTHEAST COLORADO...

CITY           SKY/WX    TMP DP  RH WIND       PRES   REMARKS
PUEBLO         FAIR      62  28  27 CALM      30.08F
LA JUNTA       FAIR      62  31  31 S3        30.08F
LAMAR          FAIR      63  35  35 VRB5      30.06F
SPRINGFIELD      N/A     67  45  45 E6        30.08F
$$




USA.gov is the U.S. government's official web portal to all federal, state and local government web resources and services.